Change the Weather History Date:

Tuesday, April 2, 2013

  Actual Average Record
Temperature  
Mean Temperature 33 °F 45 °F  
Max Temperature 40 °F 54 °F 86 °F (2010)
Min Temperature 26 °F 36 °F 19 °F (1883)
Degree Days  
Heating Degree Days 32 21  
Month to date heating degree days 57 42  
Since 1 July heating degree days 5196 5085  
Cooling Degree Days 0 0  
Month to date cooling degree days 0 0  
Year to date cooling degree days 0 1  
Growing Degree Days 0 (Base 50)    
Moisture  
Dew Point 16 °F    
Average Humidity 51    
Maximum Humidity 68    
Minimum Humidity 34    
Precipitation  
Precipitation 0.01 in 0.12 in 1.30 in (2005)
Month to date precipitation 0.02 0.24  
Year to date precipitation 6.74 8.23  
Snow  
Snow 0.10 in 0.30 in - ()
Month to date snowfall 0.2 0.5  
Since 1 July snowfall 51.6 65.3  
Snow Depth 0.00 in    
Sea Level Pressure  
Sea Level Pressure 30.18 in    
Wind  
Wind Speed 11 mph (West)    
Max Wind Speed 21 mph    
Max Gust Speed 28 mph    
Visibility 9 miles    
Events Snow    
T = Trace of Precipitation, MM = Missing Value Source: NWS Daily Summary

Daily Weather History Graph

Daily Weather History Graph

Search for Another Location

Airport or City:

Trip Planner

Search our weather history database for the weather conditions in past years. The results will help you decide how hot, cold, wet, or windy it might be!

Date:

Astronomy

Apr. 02, 2013 Rise Set
Actual Time 7:08 AM EDT 7:53 PM EDT
Civil Twilight 6:40 AM EDT 8:21 PM EDT
Nautical Twilight 6:07 AM EDT 8:55 PM EDT
Astronomical Twilight 5:33 AM EDT 9:29 PM EDT
Moon 2:00 AM EDT (4/2) 11:55 AM EDT (4/2)
Length of Visible Light 13h 41m
Length of Day
12h 45m
Waning Gibbous, 56% of the Moon is Illuminated
Apr 2
Waning Gibbous
Apr 3
Last Quarter
Apr 10
New
Apr 18
First Quarter
Apr 25
Full

Hourly Weather History & Observations

Time (EDT) Temp. Windchill Dew Point Humidity Pressure Visibility Wind Dir Wind Speed Gust Speed Precip Events Conditions
12:51 AM 30.9 °F 19.8 °F 16.0 °F 54% 30.12 in 10.0 mi NNW 16.1 mph - N/A   Overcast
1:51 AM 30.0 °F 19.5 °F 16.0 °F 56% 30.12 in 10.0 mi NW 13.8 mph - 0.00 in Snow Light Snow
2:51 AM 28.9 °F 21.1 °F 15.1 °F 56% 30.12 in 9.0 mi NW 8.1 mph - 0.00 in Snow Light Snow
3:51 AM 28.4 °F 19.1 °F 10.4 °F 47% 30.10 in 10.0 mi NW 10.4 mph - N/A   Mostly Cloudy
4:51 AM 28.0 °F 20.0 °F 10.9 °F 49% 30.12 in 10.0 mi NW 8.1 mph - N/A   Partly Cloudy
5:51 AM 26.1 °F 18.4 °F 12.9 °F 58% 30.14 in 10.0 mi West 6.9 mph - N/A   Partly Cloudy
6:51 AM 28.0 °F 20.8 °F 14.0 °F 56% 30.15 in 10.0 mi West 6.9 mph - N/A   Mostly Cloudy
7:51 AM 27.0 °F 15.6 °F 17.1 °F 66% 30.18 in 10.0 mi WSW 13.8 mph - N/A   Overcast
8:33 AM 27.0 °F 15.6 °F 19.0 °F 72% 30.18 in 2.0 mi West 13.8 mph - 0.00 in Snow Light Snow
8:36 AM 27.0 °F 15.6 °F 21.0 °F 78% 30.18 in 0.8 mi West 13.8 mph - 0.00 in Snow Light Snow
8:51 AM 26.6 °F 19.1 °F 21.2 °F 80% 30.18 in 0.8 mi West 6.9 mph - N/A Snow Light Snow
9:00 AM 27.0 °F 20.5 °F 21.9 °F 81% 30.18 in 1.0 mi West 5.8 mph - 0.01 in Snow Light Snow
9:06 AM 27.0 °F 19.5 °F 21.0 °F 78% 30.18 in 3.0 mi WSW 6.9 mph - 0.01 in Snow Light Snow
9:21 AM 28.9 °F 19.2 °F 21.0 °F 72% 30.18 in 10.0 mi WSW 11.5 mph - 0.01 in   Mostly Cloudy
9:51 AM 30.9 °F 19.8 °F 21.0 °F 67% 30.20 in 10.0 mi West 16.1 mph - 0.01 in   Scattered Clouds
10:51 AM 32.0 °F 22.1 °F 19.0 °F 59% 30.22 in 10.0 mi WNW 13.8 mph - N/A   Mostly Cloudy
11:51 AM 32.0 °F 22.1 °F 17.1 °F 54% 30.24 in 10.0 mi West 13.8 mph 24.2 mph N/A   Mostly Cloudy
12:51 PM 36.0 °F 28.0 °F 10.9 °F 36% 30.23 in 10.0 mi West 11.5 mph 20.7 mph N/A   Scattered Clouds
1:51 PM 35.1 °F 25.2 °F 10.0 °F 35% 30.22 in 10.0 mi WNW 16.1 mph - N/A   Partly Cloudy
2:51 PM 37.4 °F 26.9 °F 12.2 °F 36% 30.19 in 10.0 mi WNW 20.7 mph 25.3 mph N/A   Partly Cloudy
3:51 PM 37.4 °F 28.5 °F 14.0 °F 38% 30.17 in 10.0 mi WNW 15.0 mph 23.0 mph N/A   Partly Cloudy
4:51 PM 39.0 °F 30.6 °F 14.0 °F 36% 30.19 in 10.0 mi WSW 15.0 mph 21.9 mph N/A   Scattered Clouds
5:51 PM 39.0 °F 31.8 °F 14.0 °F 36% 30.19 in 10.0 mi West 11.5 mph 23.0 mph N/A   Scattered Clouds
6:51 PM 37.9 °F 30.5 °F 14.0 °F 38% 30.19 in 10.0 mi WNW 11.5 mph - N/A   Partly Cloudy
7:51 PM 35.6 °F 29.2 °F 15.8 °F 44% 30.17 in 10.0 mi West 8.1 mph - N/A   Scattered Clouds
8:51 PM 35.1 °F 31.0 °F 15.1 °F 44% 30.20 in 10.0 mi SW 4.6 mph - N/A   Mostly Cloudy
9:51 PM 32.0 °F 27.5 °F 16.0 °F 52% 30.22 in 10.0 mi West 4.6 mph - N/A   Mostly Cloudy
10:51 PM 35.1 °F 27.9 °F 19.0 °F 52% 30.23 in 10.0 mi NW 9.2 mph - N/A   Mostly Cloudy
11:51 PM 35.1 °F 27.4 °F 19.0 °F 52% 30.24 in 10.0 mi NW 10.4 mph - N/A   Scattered Clouds